Orbital Elements at Epoch 2459000.5 (2020-May-31.0) TDB
Reference: JPL 15 (heliocentric ecliptic J2000)
Element | Value | Uncertainty (1-sigma) | Units |
e | .1483854135978012 | 8.9803e-08 | |
a | 2.568077868530796 | 2.5047e-08 | au |
q | 2.187012571857494 | 2.4125e-07 | au |
i | 15.65428384922495 | 9.3075e-06 | deg |
node | 54.5676972932386 | 2.6597e-05 | deg |
peri | 281.934703390311 | 4.2483e-05 | deg |
M | 67.8154378723098 | 2.894e-05 | deg |
tp | 2458717.336821525219 (2019-Aug-21.83682153) | 0.00012154 | TDB |
period | 1503.179031931675 4.12 | 2.1991e-05 6.021e-08 | d yr |
n | .2394924306104633 | 3.5037e-09 | deg/d |
Q | 2.949143165204098 | 2.8763e-08 | au |
|
| | Orbit Determination Parameters
Additional Information
|